Weather History for Watford City, ND

Change the Weather History Date:

Tuesday, December 4, 2012

  Actual Average (KISN) Record (KISN)
Temperature  
Mean Temperature 17 °F 18 °F  
Max Temperature 24 °F 28 °F 58 °F (1979)
Min Temperature 10 °F 7 °F -27 °F (1972)
Degree Days  
Heating Degree Days 48 48  
Month to date heating degree days 188  
Since 1 July heating degree days 2350  
Cooling Degree Days 0 0  
Month to date cooling degree days 0  
Year to date cooling degree days 456  
Moisture  
Dew Point 14 °F    
Average Humidity 81    
Maximum Humidity 93    
Minimum Humidity 69    
Precipitation  
Precipitation 0.00 in 0.02 in 0.30 in (1948)
Month to date precipitation 0.08  
Year to date precipitation 13.83  
Sea Level Pressure  
Sea Level Pressure 30.09 in    
Wind  
Wind Speed 6 mph (East)    
Max Wind Speed 14 mph    
Max Gust Speed 18 mph    
Visibility 10 miles    
Events      
T = Trace of Precipitation, MM = Missing Value Source: NWS Daily Summary

Daily Weather History Graph

Daily Weather History Graph

Search for Another Location

Airport:

Trip Planner

Search our weather history database for the weather conditions in past years. The results will help you decide how hot, cold, wet, or windy it might be!

Date:

Astronomy

Dec. 04, 2012 Rise Set
Actual Time 8:25 AM CST 5:01 PM CST
Civil Twilight 7:49 AM CST 5:37 PM CST
Nautical Twilight 7:10 AM CST 6:16 PM CST
Astronomical Twilight 6:33 AM CST 6:53 PM CST
Moon 11:08 PM CST (12/4) 12:05 PM CST (12/4)
Length of Visible Light 9h 47m
Length of Day
8h 36m
Waning Gibbous, 69% of the Moon is Illuminated
Dec 4
Waning Gibbous
Dec 6
Last Quarter
Dec 13
New
Dec 19
First Quarter
Dec 28
Full

Hourly Weather History & Observations

Time (CST) Temp. Windchill Dew Point Humidity Pressure Visibility Wind Dir Wind Speed Gust Speed Precip Events Conditions
12:15 AM 19.4 °F 11.5 °F 15.8 °F 86% 30.01 in 10.0 mi West 5.8 mph - N/A   Clear
12:35 AM 19.4 °F 9.5 °F 15.8 °F 86% 30.01 in 10.0 mi West 8.1 mph - N/A   Clear
12:55 AM 19.4 °F 10.4 °F 14.0 °F 80% 30.01 in 10.0 mi WNW 6.9 mph - N/A   Clear
1:15 AM 19.4 °F 10.4 °F 14.0 °F 80% 30.02 in 10.0 mi NW 6.9 mph - N/A   Clear
1:35 AM 17.6 °F 9.3 °F 14.0 °F 86% 30.03 in 10.0 mi NW 5.8 mph - N/A   Clear
1:55 AM 17.6 °F 12.3 °F 14.0 °F 86% 30.03 in 10.0 mi NNE 3.5 mph - N/A   Clear
2:15 AM 15.8 °F 8.6 °F 14.0 °F 93% 30.04 in 10.0 mi NNW 4.6 mph - N/A   Clear
2:55 AM 15.8 °F 10.2 °F 12.2 °F 86% 30.06 in 10.0 mi North 3.5 mph - N/A   Clear
3:15 AM 15.8 °F 8.6 °F 10.4 °F 79% 30.07 in 10.0 mi NNE 4.6 mph - N/A   Clear
3:35 AM 14.0 °F 8.2 °F 10.4 °F 86% 30.08 in 10.0 mi NNE 3.5 mph - N/A   Clear
3:55 AM 14.0 °F - 12.2 °F 93% 30.09 in 10.0 mi Calm Calm - N/A   Clear
4:15 AM 14.0 °F - 10.4 °F 86% 30.09 in 10.0 mi Calm Calm - N/A   Clear
4:35 AM 14.0 °F - 10.4 °F 86% 30.10 in 10.0 mi Calm Calm - N/A   Clear
4:55 AM 12.2 °F 6.1 °F 10.4 °F 92% 30.11 in 10.0 mi ENE 3.5 mph - N/A   Clear
5:15 AM 14.0 °F - 10.4 °F 86% 30.11 in 10.0 mi Calm Calm - N/A   Clear
5:35 AM 14.0 °F 8.2 °F 10.4 °F 86% 30.13 in 10.0 mi NE 3.5 mph - N/A   Clear
6:15 AM 12.2 °F - 8.6 °F 85% 30.14 in 10.0 mi Calm Calm - N/A   Clear
6:35 AM 12.2 °F 4.3 °F 8.6 °F 85% 30.15 in 10.0 mi North 4.6 mph - N/A   Clear
6:55 AM 12.2 °F - 8.6 °F 85% 30.15 in 10.0 mi Calm Calm - N/A   Clear
7:15 AM 12.2 °F 6.1 °F 8.6 °F 85% 30.15 in 10.0 mi ENE 3.5 mph - N/A   Clear
7:35 AM 10.4 °F 2.2 °F 8.6 °F 92% 30.16 in 10.0 mi ENE 4.6 mph - N/A   Clear
7:55 AM 10.4 °F - 8.6 °F 92% 30.16 in 10.0 mi Calm Calm - N/A   Clear
8:15 AM 10.4 °F 2.2 °F 8.6 °F 92% 30.16 in 10.0 mi East 4.6 mph - N/A   Clear
8:35 AM 10.4 °F - 8.6 °F 92% 30.17 in 10.0 mi Calm Calm - N/A   Clear
8:55 AM 10.4 °F 4.0 °F 8.6 °F 92% 30.18 in 10.0 mi East 3.5 mph - N/A   Clear
9:15 AM 12.2 °F - 8.6 °F 85% 30.18 in 10.0 mi Calm Calm - N/A   Clear
9:35 AM 14.0 °F 6.5 °F 8.6 °F 79% 30.18 in 10.0 mi East 4.6 mph - N/A   Clear
9:55 AM 14.0 °F 8.2 °F 10.4 °F 86% 30.18 in 10.0 mi East 3.5 mph - N/A   Clear
10:15 AM 15.8 °F 7.2 °F 10.4 °F 79% 30.17 in 10.0 mi East 5.8 mph - N/A   Clear
10:35 AM 15.8 °F 7.2 °F 12.2 °F 86% 30.16 in 10.0 mi ENE 5.8 mph - N/A   Clear
10:55 AM 17.6 °F 7.3 °F 14.0 °F 86% 30.17 in 10.0 mi ESE 8.1 mph - N/A   Clear
11:15 AM 19.4 °F 9.5 °F 14.0 °F 80% 30.17 in 10.0 mi ESE 8.1 mph - N/A   Clear
11:35 AM 19.4 °F 9.5 °F 14.0 °F 80% 30.17 in 10.0 mi ESE 8.1 mph - N/A   Clear
12:15 PM 23.0 °F 12.4 °F 15.8 °F 74% 30.15 in 10.0 mi ESE 10.4 mph - N/A   Clear
12:35 PM 23.0 °F 11.7 °F 15.8 °F 74% 30.15 in 10.0 mi ESE 11.5 mph - N/A   Clear
12:55 PM 23.0 °F 12.4 °F 15.8 °F 74% 30.15 in 10.0 mi SE 10.4 mph - N/A   Clear
1:15 PM 23.0 °F 11.7 °F 15.8 °F 74% 30.14 in 10.0 mi ESE 11.5 mph - N/A   Clear
1:35 PM 23.0 °F 11.7 °F 15.8 °F 74% 30.14 in 10.0 mi ESE 11.5 mph - N/A   Clear
1:55 PM 23.0 °F 12.4 °F 15.8 °F 74% 30.13 in 10.0 mi ESE 10.4 mph - N/A   Clear
2:15 PM 24.8 °F 14.0 °F 15.8 °F 69% 30.12 in 10.0 mi SE 11.5 mph - N/A   Clear
2:35 PM 24.8 °F 14.6 °F 17.6 °F 74% 30.11 in 10.0 mi SE 10.4 mph - N/A   Clear
2:55 PM 24.8 °F 14.0 °F 17.6 °F 74% 30.10 in 10.0 mi ESE 11.5 mph - N/A   Clear
3:15 PM 24.8 °F 14.6 °F 17.6 °F 74% 30.09 in 10.0 mi SE 10.4 mph - N/A   Clear
3:35 PM 24.8 °F 12.9 °F 17.6 °F 74% 30.08 in 10.0 mi ESE 13.8 mph - N/A   Clear
3:55 PM 24.8 °F 14.0 °F 17.6 °F 74% 30.08 in 10.0 mi SE 11.5 mph - N/A   Clear
4:15 PM 24.8 °F 13.4 °F 17.6 °F 74% 30.08 in 10.0 mi ESE 12.7 mph - N/A   Clear
4:35 PM 24.8 °F 13.4 °F 17.6 °F 74% 30.07 in 10.0 mi ESE 12.7 mph 18.4 mph N/A   Partly Cloudy
4:55 PM 24.8 °F 13.4 °F 17.6 °F 74% 30.06 in 10.0 mi ESE 12.7 mph - N/A   Scattered Clouds
5:15 PM 24.8 °F 16.9 °F 17.6 °F 74% 30.07 in 8.0 mi ESE 6.9 mph - N/A   Overcast
5:35 PM 23.0 °F 13.1 °F 17.6 °F 80% 30.07 in 10.0 mi ESE 9.2 mph - N/A   Mostly Cloudy
5:55 PM 23.0 °F 13.1 °F 17.6 °F 80% 30.06 in 10.0 mi SE 9.2 mph - N/A   Scattered Clouds
6:15 PM 23.0 °F 11.7 °F 17.6 °F 80% 30.06 in 10.0 mi ESE 11.5 mph - N/A   Mostly Cloudy
6:35 PM 23.0 °F 13.1 °F 17.6 °F 80% 30.06 in 10.0 mi SE 9.2 mph - N/A   Scattered Clouds
6:55 PM 23.0 °F 13.1 °F 17.6 °F 80% 30.05 in 10.0 mi SE 9.2 mph - N/A   Mostly Cloudy
7:15 PM 24.8 °F 13.4 °F 17.6 °F 74% 30.04 in 10.0 mi SE 12.7 mph - N/A   Overcast
7:35 PM 24.8 °F 16.1 °F 17.6 °F 74% 30.04 in 10.0 mi SE 8.1 mph - N/A   Overcast
7:55 PM 24.8 °F 17.9 °F 17.6 °F 74% 30.04 in 10.0 mi ESE 5.8 mph - N/A   Mostly Cloudy
8:15 PM 24.8 °F 16.9 °F 17.6 °F 74% 30.04 in 10.0 mi ESE 6.9 mph - N/A   Scattered Clouds
8:35 PM 24.8 °F 15.3 °F 17.6 °F 74% 30.03 in 10.0 mi ESE 9.2 mph - N/A   Partly Cloudy
8:55 PM 24.8 °F 19.1 °F 17.6 °F 74% 30.02 in 10.0 mi East 4.6 mph - N/A   Clear
9:15 PM 23.0 °F 17.0 °F 17.6 °F 80% 30.01 in 10.0 mi NE 4.6 mph - N/A   Partly Cloudy
9:35 PM 23.0 °F 17.0 °F 17.6 °F 80% 30.01 in 10.0 mi ENE 4.6 mph - N/A   Partly Cloudy
9:55 PM 23.0 °F 15.8 °F 17.6 °F 80% 30.01 in 10.0 mi East 5.8 mph - N/A   Clear
10:15 PM 23.0 °F 17.0 °F 17.6 °F 80% 30.01 in 10.0 mi ESE 4.6 mph - N/A   Clear
10:35 PM 23.0 °F 13.9 °F 17.6 °F 80% 30.00 in 10.0 mi East 8.1 mph - N/A   Clear
10:55 PM 23.0 °F 14.7 °F 17.6 °F 80% 30.00 in 10.0 mi ESE 6.9 mph - N/A   Clear
11:15 PM 23.0 °F 14.7 °F 17.6 °F 80% 29.99 in 10.0 mi ESE 6.9 mph - N/A   Clear
11:35 PM 23.0 °F 14.7 °F 17.6 °F 80% 29.98 in 10.0 mi ESE 6.9 mph - N/A   Clear
11:55 PM 23.0 °F 13.9 °F 17.6 °F 80% 29.97 in 10.0 mi ESE 8.1 mph - N/A   Clear